| time (UTC) | temp F | wind direction | speed MPH | gust MPH | rain 1hr in | rain 24hr in | rain mn in | humidity % | barometer mb |
| 20260507021529 | 58 | 247 | 1.0 | 6.0 | 0.00 | 0.15 | 0.15 | 39 | 1014.7 |
| 20260507021028 | 58 | 1 | 0.0 | 3.0 | 0.00 | 0.15 | 0.15 | 35 | 1014.7 |
| 20260507020527 | 59 | 1 | 0.0 | 3.0 | 0.00 | 0.15 | 0.15 | 34 | 1014.7 |
| 20260507020025 | 59 | 1 | 0.0 | 3.0 | 0.00 | 0.15 | 0.15 | 33 | 1014.7 |
| 20260507015526 | 59 | 360 | 1.0 | 4.0 | 0.00 | 0.15 | 0.15 | 31 | 1014.7 |
| 20260507015022 | 60 | 6 | 2.0 | 4.0 | 0.00 | 0.15 | 0.15 | 31 | 1014.7 |
| 20260507014521 | 60 | 211 | 2.0 | 5.0 | 0.00 | 0.15 | 0.15 | 31 | 1014.7 |
| 20260507014020 | 60 | 6 | 2.0 | 8.0 | 0.00 | 0.15 | 0.15 | 31 | 1014.8 |
| 20260507013518 | 60 | 359 | 4.0 | 9.0 | 0.00 | 0.15 | 0.15 | 29 | 1014.7 |
| 20260507013016 | 60 | 9 | 4.0 | 9.0 | 0.00 | 0.15 | 0.15 | 30 | 1014.7 |
| 20260507012518 | 61 | 350 | 4.0 | 10.0 | 0.00 | 0.15 | 0.15 | 30 | 1014.7 |
| 20260507012013 | 61 | 26 | 5.0 | 10.0 | 0.00 | 0.15 | 0.15 | 29 | 1014.7 |
| 20260507011523 | 61 | 18 | 5.0 | 10.0 | 0.00 | 0.15 | 0.15 | 29 | 1014.7 |
| 20260507011010 | 61 | 4 | 5.0 | 11.0 | 0.00 | 0.15 | 0.15 | 30 | 1014.7 |
| 20260507010509 | 61 | 345 | 5.0 | 11.0 | 0.00 | 0.15 | 0.15 | 30 | 1014.7 |
| 20260507010008 | 61 | 355 | 3.0 | 10.0 | 0.00 | 0.15 | 0.15 | 30 | 1014.7 |
| 20260507005512 | 61 | 37 | 5.0 | 11.0 | 0.00 | 0.15 | 0.15 | 29 | 1014.7 |
| 20260507005004 | 61 | 65 | 4.0 | 9.0 | 0.00 | 0.15 | 0.15 | 29 | 1014.7 |
| 20260507004505 | 61 | 41 | 6.0 | 10.0 | 0.00 | 0.15 | 0.15 | 29 | 1014.7 |
| 20260507004002 | 61 | 17 | 6.0 | 10.0 | 0.00 | 0.15 | 0.15 | 29 | 1014.7 |
| 20260507003600 | 62 | 24 | 6.0 | 11.0 | 0.00 | 0.15 | 0.15 | 29 | 1014.7 |
| 20260507003059 | 62 | 20 | 7.0 | 11.0 | 0.00 | 0.15 | 0.15 | 29 | 1014.7 |
| 20260507002557 | 61 | 20 | 5.0 | 12.0 | 0.00 | 0.15 | 0.15 | 29 | 1014.5 |
| 20260507002057 | 61 | 59 | 8.0 | 12.0 | 0.00 | 0.15 | 0.15 | 28 | 1014.6 |
| 20260507001613 | 61 | 28 | 7.0 | 14.0 | 0.00 | 0.15 | 0.15 | 29 | 1014.6 |
| 20260507001052 | 61 | 3 | 9.0 | 14.0 | 0.00 | 0.15 | 0.15 | 29 | 1014.6 |
| 20260507000553 | 61 | 32 | 7.0 | 15.0 | 0.00 | 0.15 | 0.15 | 29 | 1014.6 |
| 20260507000057 | 62 | 27 | 9.0 | 14.0 | 0.00 | 0.15 | 0.15 | 29 | 1014.5 |
| 20260506235549 | 62 | 37 | 9.0 | 13.0 | 0.00 | 0.15 | 0.15 | 29 | 1014.6 |
| 20260506235050 | 61 | 22 | 7.0 | 13.0 | 0.00 | 0.15 | 0.15 | 29 | 1014.7 |
| 20260506234547 | 61 | 55 | 9.0 | 13.0 | 0.00 | 0.15 | 0.15 | 29 | 1014.8 |
| 20260506234044 | 61 | 46 | 8.0 | 14.0 | 0.00 | 0.15 | 0.15 | 29 | 1014.8 |
| 20260506233543 | 61 | 22 | 10.0 | 16.0 | 0.00 | 0.15 | 0.15 | 29 | 1014.9 |
| 20260506233041 | 61 | 22 | 9.0 | 15.0 | 0.00 | 0.15 | 0.15 | 29 | 1014.9 |
| 20260506232539 | 61 | 22 | 8.0 | 15.0 | 0.00 | 0.15 | 0.15 | 29 | 1014.9 |
| 20260506232038 | 61 | 53 | 10.0 | 15.0 | 0.00 | 0.15 | 0.15 | 29 | 1014.9 |
| 20260506231537 | 61 | 41 | 10.0 | 16.0 | 0.00 | 0.15 | 0.15 | 29 | 1015.0 |
| 20260506231035 | 61 | 345 | 9.0 | 16.0 | 0.00 | 0.15 | 0.15 | 30 | 1015.0 |
| 20260506230533 | 61 | 31 | 10.0 | 16.0 | 0.00 | 0.15 | 0.15 | 30 | 1014.9 |
| 20260506230031 | 61 | 42 | 8.0 | 17.0 | 0.00 | 0.15 | 0.15 | 30 | 1015.0 |
| 20260506225531 | 60 | 10 | 13.0 | 17.0 | 0.00 | 0.15 | 0.15 | 31 | 1015.0 |
| 20260506225030 | 60 | 14 | 11.0 | 17.0 | 0.00 | 0.15 | 0.15 | 29 | 1015.1 |
| 20260506224530 | 60 | 44 | 10.0 | 18.0 | 0.00 | 0.15 | 0.15 | 30 | 1015.1 |
| 20260506224026 | 60 | 9 | 10.0 | 16.0 | 0.00 | 0.15 | 0.15 | 30 | 1015.2 |
| 20260506223526 | 60 | 35 | 10.0 | 22.0 | 0.00 | 0.15 | 0.15 | 31 | 1015.3 |
| 20260506223024 | 59 | 4 | 9.0 | 24.0 | 0.00 | 0.15 | 0.15 | 32 | 1015.2 |
| 20260506222522 | 59 | 13 | 14.0 | 24.0 | 0.00 | 0.15 | 0.15 | 30 | 1015.2 |
| 20260506222020 | 59 | 359 | 11.0 | 19.0 | 0.00 | 0.15 | 0.15 | 30 | 1015.2 |
| 20260506221518 | 59 | 2 | 13.0 | 20.0 | 0.00 | 0.15 | 0.15 | 30 | 1015.3 |
| 20260506221017 | 60 | 9 | 12.0 | 20.0 | 0.00 | 0.15 | 0.15 | 30 | 1015.3 |
| 20260506220516 | 59 | 8 | 9.0 | 16.0 | 0.00 | 0.15 | 0.15 | 30 | 1015.3 |
| 20260506220015 | 59 | 359 | 10.0 | 19.0 | 0.00 | 0.15 | 0.15 | 30 | 1015.3 |
| 20260506215513 | 59 | 3 | 11.0 | 19.0 | 0.00 | 0.15 | 0.15 | 31 | 1015.4 |
| 20260506215012 | 59 | 12 | 10.0 | 16.0 | 0.00 | 0.15 | 0.15 | 31 | 1015.4 |
| 20260506214510 | 59 | 26 | 11.0 | 21.0 | 0.00 | 0.15 | 0.15 | 32 | 1015.5 |
| 20260506214009 | 58 | 12 | 12.0 | 21.0 | 0.00 | 0.15 | 0.15 | 33 | 1015.6 |
| 20260506213507 | 58 | 14 | 10.0 | 17.0 | 0.00 | 0.15 | 0.15 | 32 | 1015.7 |
| 20260506213008 | 58 | 328 | 8.0 | 17.0 | 0.00 | 0.15 | 0.15 | 32 | 1015.7 |
| 20260506212508 | 58 | 345 | 10.0 | 17.0 | 0.00 | 0.15 | 0.15 | 33 | 1015.7 |
| 20260506212004 | 58 | 23 | 11.0 | 19.0 | 0.00 | 0.15 | 0.15 | 32 | 1015.7 |
| 20260506211501 | 58 | 350 | 11.0 | 19.0 | 0.00 | 0.15 | 0.15 | 33 | 1015.6 |
| 20260506211103 | 57 | 323 | 10.0 | 20.0 | 0.00 | 0.15 | 0.15 | 31 | 1015.7 |
| 20260506210601 | 57 | 345 | 10.0 | 20.0 | 0.00 | 0.15 | 0.15 | 32 | 1015.7 |
| 20260506210119 | 57 | 309 | 12.0 | 17.0 | 0.00 | 0.15 | 0.15 | 33 | 1015.6 |
| 20260506205556 | 57 | 350 | 10.0 | 19.0 | 0.00 | 0.15 | 0.15 | 32 | 1015.7 |
| 20260506205054 | 57 | 330 | 11.0 | 19.0 | 0.00 | 0.15 | 0.15 | 30 | 1015.7 |
| 20260506204553 | 58 | 16 | 7.0 | 17.0 | 0.00 | 0.15 | 0.15 | 34 | 1015.6 |
| 20260506204051 | 57 | 359 | 11.0 | 17.0 | 0.00 | 0.15 | 0.15 | 33 | 1015.6 |
| 20260506203550 | 57 | 11 | 10.0 | 20.0 | 0.00 | 0.15 | 0.15 | 32 | 1015.6 |
| 20260506203137 | 56 | 28 | 10.0 | 18.0 | 0.00 | 0.15 | 0.15 | 33 | 1015.7 |
| 20260506202550 | 56 | 41 | 11.0 | 19.0 | 0.00 | 0.15 | 0.15 | 31 | 1015.6 |
| 20260506202048 | 56 | 31 | 13.0 | 19.0 | 0.00 | 0.15 | 0.15 | 33 | 1015.6 |
| 20260506201548 | 56 | 336 | 10.0 | 19.0 | 0.00 | 0.15 | 0.15 | 33 | 1015.7 |
| 20260506201043 | 55 | 309 | 9.0 | 19.0 | 0.00 | 0.15 | 0.15 | 31 | 1015.7 |
| 20260506200542 | 56 | 337 | 10.0 | 20.0 | 0.00 | 0.15 | 0.15 | 32 | 1015.7 |
| 20260506200048 | 56 | 345 | 13.0 | 23.0 | 0.00 | 0.15 | 0.15 | 33 | 1015.6 |
| 20260506195539 | 56 | 359 | 10.0 | 20.0 | 0.00 | 0.15 | 0.15 | 31 | 1015.7 |
| 20260506195038 | 55 | 24 | 12.0 | 20.0 | 0.00 | 0.15 | 0.15 | 33 | 1015.5 |
| 20260506194537 | 55 | 3 | 13.0 | 20.0 | 0.00 | 0.15 | 0.15 | 32 | 1015.7 |
| 20260506194035 | 55 | 359 | 14.0 | 19.0 | 0.00 | 0.15 | 0.15 | 31 | 1015.7 |
| 20260506193534 | 55 | 336 | 10.0 | 20.0 | 0.00 | 0.15 | 0.15 | 32 | 1015.6 |
| 20260506193032 | 55 | 47 | 13.0 | 20.0 | 0.00 | 0.15 | 0.15 | 32 | 1015.6 |
| 20260506192533 | 55 | 329 | 13.0 | 20.0 | 0.00 | 0.15 | 0.15 | 32 | 1015.6 |
| 20260506192030 | 54 | 359 | 13.0 | 21.0 | 0.00 | 0.15 | 0.15 | 32 | 1015.5 |
| 20260506191529 | 55 | 311 | 13.0 | 21.0 | 0.00 | 0.15 | 0.15 | 32 | 1015.5 |
| 20260506191026 | 55 | 16 | 14.0 | 21.0 | 0.00 | 0.15 | 0.15 | 34 | 1015.5 |
| 20260506190525 | 54 | 1 | 12.0 | 22.0 | 0.00 | 0.15 | 0.15 | 34 | 1015.5 |
| 20260506190033 | 54 | 350 | 14.0 | 22.0 | 0.00 | 0.15 | 0.15 | 31 | 1015.6 |
| 20260506185521 | 54 | 328 | 11.0 | 23.0 | 0.00 | 0.15 | 0.15 | 31 | 1015.5 |
| 20260506185020 | 54 | 309 | 14.0 | 23.0 | 0.00 | 0.15 | 0.15 | 31 | 1015.5 |
| 20260506184519 | 54 | 319 | 14.0 | 21.0 | 0.00 | 0.15 | 0.15 | 32 | 1015.7 |
| 20260506184018 | 53 | 345 | 10.0 | 19.0 | 0.00 | 0.15 | 0.15 | 33 | 1015.6 |
| 20260506183516 | 53 | 19 | 14.0 | 19.0 | 0.00 | 0.15 | 0.15 | 31 | 1015.7 |
| 20260506183015 | 53 | 1 | 11.0 | 19.0 | 0.00 | 0.15 | 0.15 | 31 | 1015.7 |
| 20260506182513 | 53 | 345 | 12.0 | 23.0 | 0.00 | 0.15 | 0.15 | 32 | 1015.5 |
| 20260506182017 | 53 | 336 | 14.0 | 23.0 | 0.00 | 0.15 | 0.15 | 32 | 1015.5 |
| 20260506181510 | 54 | 340 | 13.0 | 22.0 | 0.00 | 0.15 | 0.15 | 33 | 1015.5 |
| 20260506181009 | 53 | 345 | 11.0 | 22.0 | 0.00 | 0.15 | 0.15 | 33 | 1015.4 |
| 20260506180510 | 53 | 310 | 11.0 | 23.0 | 0.00 | 0.15 | 0.15 | 33 | 1015.5 |
| 20260506180006 | 53 | 331 | 14.0 | 26.0 | 0.00 | 0.15 | 0.15 | 32 | 1015.4 |
| 20260506175507 | 53 | 359 | 14.0 | 26.0 | 0.00 | 0.15 | 0.15 | 34 | 1015.4 |
| 20260506175003 | 52 | 2 | 15.0 | 21.0 | 0.00 | 0.15 | 0.15 | 33 | 1015.5 |
| 20260506174611 | 53 | 18 | 15.0 | 21.0 | 0.00 | 0.15 | 0.15 | 33 | 1015.3 |
| 20260506174502 | 53 | 323 | 14.0 | 23.0 | 0.00 | 0.15 | 0.15 | 35 | 1015.4 |
| 20260506174101 | 53 | 332 | 12.0 | 23.0 | 0.00 | 0.15 | 0.15 | 37 | 1015.3 |
| 20260506173559 | 52 | 33 | 12.0 | 22.0 | 0.00 | 0.15 | 0.15 | 38 | 1015.2 |
| 20260506173058 | 52 | 7 | 15.0 | 22.0 | 0.00 | 0.15 | 0.15 | 39 | 1015.2 |
| 20260506172555 | 52 | 350 | 15.0 | 20.0 | 0.00 | 0.15 | 0.15 | 37 | 1015.0 |
| 20260506172054 | 52 | 337 | 13.0 | 20.0 | 0.00 | 0.15 | 0.15 | 38 | 1014.9 |
| 20260506171557 | 52 | 309 | 13.0 | 24.0 | 0.00 | 0.15 | 0.15 | 38 | 1014.9 |
| 20260506171052 | 52 | 345 | 14.0 | 25.0 | 0.00 | 0.15 | 0.15 | 37 | 1014.8 |
| 20260506170550 | 52 | 345 | 13.0 | 23.0 | 0.00 | 0.15 | 0.15 | 38 | 1014.6 |
| 20260506170049 | 52 | 37 | 15.0 | 23.0 | 0.00 | 0.15 | 0.15 | 36 | 1014.5 |
| 20260506165546 | 52 | 33 | 13.0 | 23.0 | 0.00 | 0.15 | 0.15 | 37 | 1014.4 |
| 20260506165045 | 52 | 359 | 14.0 | 24.0 | 0.00 | 0.15 | 0.15 | 37 | 1014.3 |
| 20260506164548 | 52 | 338 | 16.0 | 24.0 | 0.00 | 0.15 | 0.15 | 37 | 1014.3 |
| 20260506164042 | 52 | 326 | 12.0 | 22.0 | 0.00 | 0.15 | 0.15 | 40 | 1014.1 |
| 20260506163540 | 52 | 339 | 13.0 | 24.0 | 0.00 | 0.15 | 0.15 | 40 | 1014.2 |
| 20260506163055 | 52 | 8 | 11.0 | 24.0 | 0.00 | 0.15 | 0.15 | 41 | 1014.1 |
| 20260506162537 | 52 | 336 | 13.0 | 21.0 | 0.00 | 0.15 | 0.15 | 43 | 1013.9 |
| 20260506162037 | 52 | 337 | 13.0 | 22.0 | 0.00 | 0.15 | 0.15 | 41 | 1013.9 |
| 20260506161537 | 52 | 332 | 13.0 | 24.0 | 0.00 | 0.15 | 0.15 | 42 | 1013.8 |
| 20260506161035 | 52 | 339 | 14.0 | 24.0 | 0.00 | 0.15 | 0.15 | 43 | 1013.9 |
| 20260506160531 | 52 | 341 | 12.0 | 21.0 | 0.01 | 0.15 | 0.15 | 46 | 1013.7 |
| 20260506160030 | 51 | 12 | 13.0 | 22.0 | 0.01 | 0.15 | 0.15 | 43 | 1013.7 |
| 20260506155528 | 51 | 338 | 14.0 | 22.0 | 0.01 | 0.15 | 0.15 | 43 | 1013.7 |
| 20260506155027 | 51 | 360 | 14.0 | 21.0 | 0.01 | 0.15 | 0.15 | 44 | 1013.6 |
| 20260506154534 | 51 | 5 | 12.0 | 18.0 | 0.01 | 0.15 | 0.15 | 43 | 1013.5 |
| 20260506154024 | 51 | 28 | 11.0 | 20.0 | 0.01 | 0.15 | 0.15 | 44 | 1013.6 |
| 20260506153523 | 51 | 311 | 13.0 | 24.0 | 0.01 | 0.15 | 0.15 | 42 | 1013.6 |
| 20260506153025 | 51 | 323 | 13.0 | 24.0 | 0.01 | 0.15 | 0.15 | 42 | 1013.5 |
| 20260506152520 | 51 | 307 | 10.0 | 17.0 | 0.01 | 0.15 | 0.15 | 43 | 1013.5 |
| 20260506152018 | 50 | 345 | 12.0 | 17.0 | 0.01 | 0.15 | 0.15 | 42 | 1013.4 |
| 20260506151517 | 50 | 359 | 11.0 | 18.0 | 0.01 | 0.15 | 0.15 | 41 | 1013.3 |
| 20260506151016 | 50 | 317 | 12.0 | 23.0 | 0.01 | 0.15 | 0.15 | 40 | 1013.3 |
| 20260506150518 | 50 | 323 | 12.0 | 20.0 | 0.00 | 0.14 | 0.14 | 40 | 1013.2 |
| 20260506150012 | 50 | 311 | 13.0 | 21.0 | 0.00 | 0.14 | 0.14 | 39 | 1013.2 |
| 20260506145511 | 50 | 350 | 13.0 | 21.0 | 0.00 | 0.14 | 0.14 | 39 | 1013.2 |
| 20260506145009 | 50 | 5 | 12.0 | 20.0 | 0.00 | 0.14 | 0.14 | 40 | 1013.0 |
| 20260506144507 | 49 | 359 | 12.0 | 22.0 | 0.00 | 0.14 | 0.14 | 39 | 1012.9 |
| 20260506144009 | 49 | 339 | 14.0 | 22.0 | 0.00 | 0.14 | 0.14 | 39 | 1012.7 |
| 20260506143507 | 49 | 338 | 12.0 | 19.0 | 0.00 | 0.14 | 0.14 | 42 | 1012.8 |
| 20260506143004 | 49 | 307 | 11.0 | 18.0 | 0.00 | 0.14 | 0.14 | 48 | 1012.7 |
| 20260506142503 | 49 | 345 | 11.0 | 16.0 | 0.00 | 0.14 | 0.14 | 49 | 1012.7 |
| 20260506142000 | 49 | 328 | 11.0 | 16.0 | 0.00 | 0.14 | 0.14 | 50 | 1012.7 |
| 20260506141558 | 48 | 328 | 11.0 | 16.0 | 0.00 | 0.14 | 0.14 | 52 | 1012.7 |
| 20260506141057 | 48 | 295 | 7.0 | 15.0 | 0.00 | 0.14 | 0.14 | 52 | 1012.7 |
| 20260506140558 | 48 | 325 | 7.0 | 15.0 | 0.00 | 0.14 | 0.14 | 53 | 1012.7 |
| 20260506140056 | 48 | 309 | 10.0 | 15.0 | 0.00 | 0.14 | 0.14 | 53 | 1012.7 |
| 20260506135553 | 47 | 315 | 8.0 | 14.0 | 0.00 | 0.14 | 0.14 | 53 | 1012.7 |
| 20260506135051 | 47 | 290 | 9.0 | 14.0 | 0.00 | 0.14 | 0.14 | 53 | 1012.7 |
| 20260506134550 | 47 | 289 | 7.0 | 12.0 | 0.00 | 0.14 | 0.14 | 52 | 1012.6 |
| 20260506134048 | 46 | 299 | 7.0 | 12.0 | 0.00 | 0.14 | 0.14 | 50 | 1012.6 |
| 20260506133547 | 46 | 302 | 7.0 | 13.0 | 0.00 | 0.14 | 0.14 | 50 | 1012.5 |
| 20260506133048 | 46 | 313 | 8.0 | 13.0 | 0.00 | 0.14 | 0.14 | 49 | 1012.4 |
| 20260506132545 | 45 | 303 | 7.0 | 12.0 | 0.00 | 0.14 | 0.14 | 44 | 1012.3 |
| 20260506132043 | 45 | 338 | 7.0 | 11.0 | 0.00 | 0.14 | 0.14 | 38 | 1012.3 |
| 20260506131541 | 45 | 338 | 6.0 | 11.0 | 0.00 | 0.14 | 0.14 | 23 | 1012.2 |
| 20260506131039 | 45 | 299 | 5.0 | 10.0 | 0.00 | 0.14 | 0.14 | 1 | 1012.0 |
| 20260506130538 | 44 | 301 | 4.0 | 10.0 | 0.00 | 0.14 | 0.14 | 1 | 1012.0 |
| 20260506130040 | 44 | 303 | 6.0 | 10.0 | 0.00 | 0.14 | 0.14 | 1 | 1011.8 |
| 20260506125536 | 44 | 323 | 5.0 | 10.0 | 0.00 | 0.14 | 0.14 | 1 | 1011.7 |
| 20260506125033 | 43 | 310 | 6.0 | 10.0 | 0.00 | 0.14 | 0.14 | 1 | 1011.7 |
| 20260506124532 | 44 | 318 | 6.0 | 10.0 | 0.00 | 0.14 | 0.14 | 1 | 1011.7 |
| 20260506124031 | 44 | 323 | 6.0 | 10.0 | 0.00 | 0.14 | 0.14 | 1 | 1011.5 |
| 20260506123530 | 43 | 297 | 6.0 | 10.0 | 0.00 | 0.14 | 0.14 | 1 | 1011.5 |
| 20260506123028 | 43 | 295 | 6.0 | 9.0 | 0.00 | 0.14 | 0.14 | 1 | 1011.4 |
| 20260506122527 | 43 | 308 | 6.0 | 9.0 | 0.00 | 0.14 | 0.14 | 1 | 1011.4 |
| 20260506122025 | 43 | 328 | 4.0 | 9.0 | 0.00 | 0.14 | 0.14 | 1 | 1011.3 |
| 20260506121523 | 44 | 306 | 4.0 | 10.0 | 0.00 | 0.14 | 0.14 | 1 | 1011.2 |
| 20260506121024 | 44 | 350 | 6.0 | 10.0 | 0.00 | 0.14 | 0.14 | 1 | 1011.1 |
| 20260506120520 | 45 | 338 | 5.0 | 12.0 | 0.00 | 0.14 | 0.14 | 1 | 1011.1 |
| 20260506120019 | 45 | 303 | 7.0 | 15.0 | 0.00 | 0.14 | 0.14 | 1 | 1011.0 |
| 20260506115516 | 45 | 291 | 10.0 | 15.0 | 0.00 | 0.14 | 0.14 | 1 | 1011.0 |
| 20260506115015 | 45 | 311 | 10.0 | 16.0 | 0.00 | 0.14 | 0.14 | 1 | 1010.9 |
| 20260506114515 | 45 | 299 | 11.0 | 15.0 | 0.00 | 0.14 | 0.14 | 1 | 1010.8 |
| 20260506114013 | 45 | 297 | 10.0 | 18.0 | 0.00 | 0.14 | 0.14 | 1 | 1010.8 |
| 20260506113512 | 45 | 298 | 11.0 | 18.0 | 0.00 | 0.14 | 0.14 | 1 | 1010.8 |
| 20260506113010 | 45 | 311 | 12.0 | 17.0 | 0.00 | 0.14 | 0.14 | 1 | 1010.8 |
| 20260506112509 | 45 | 313 | 11.0 | 17.0 | 0.00 | 0.14 | 0.14 | 1 | 1010.7 |
| 20260506112007 | 45 | 301 | 11.0 | 16.0 | 0.00 | 0.14 | 0.14 | 1 | 1010.7 |
| 20260506111506 | 45 | 302 | 12.0 | 16.0 | 0.00 | 0.14 | 0.14 | 1 | 1010.6 |
| 20260506111003 | 45 | 293 | 10.0 | 16.0 | 0.00 | 0.14 | 0.14 | 1 | 1010.6 |
| 20260506110502 | 45 | 310 | 7.0 | 11.0 | 0.00 | 0.14 | 0.14 | 1 | 1010.5 |
| 20260506110002 | 45 | 309 | 5.0 | 12.0 | 0.00 | 0.14 | 0.14 | 1 | 1010.4 |
| 20260506105600 | 45 | 304 | 5.0 | 12.0 | 0.00 | 0.14 | 0.14 | 1 | 1010.4 |
| 20260506105057 | 45 | 285 | 3.0 | 10.0 | 0.00 | 0.14 | 0.14 | 1 | 1010.2 |
| 20260506104607 | 45 | 307 | 4.0 | 11.0 | 0.00 | 0.14 | 0.14 | 1 | 1010.2 |
| 20260506104055 | 45 | 311 | 5.0 | 10.0 | 0.00 | 0.14 | 0.14 | 1 | 1010.0 |
| 20260506103553 | 44 | 294 | 5.0 | 9.0 | 0.00 | 0.14 | 0.14 | 1 | 1009.8 |
| 20260506103054 | 44 | 319 | 4.0 | 6.0 | 0.00 | 0.14 | 0.14 | 1 | 1009.7 |
| 20260506102550 | 43 | 315 | 3.0 | 7.0 | 0.00 | 0.14 | 0.14 | 1 | 1009.5 |
| 20260506102048 | 43 | 333 | 3.0 | 4.0 | 0.00 | 0.14 | 0.14 | 1 | 1009.4 |
| 20260506101558 | 43 | 333 | 0.0 | 0.0 | 0.00 | 0.14 | 0.14 | 1 | 1009.2 |
| 20260506101045 | 43 | 333 | 0.0 | 0.0 | 0.00 | 0.14 | 0.14 | 1 | 1009.1 |
| 20260506100546 | 43 | 333 | 0.0 | 0.0 | 0.00 | 0.14 | 0.14 | 1 | 1009.1 |
| 20260506100043 | 42 | 333 | 0.0 | 0.0 | 0.00 | 0.14 | 0.14 | 1 | 1008.9 |
| 20260506095542 | 42 | 333 | 0.0 | 0.0 | 0.00 | 0.15 | 0.14 | 1 | 1008.9 |
| 20260506095040 | 42 | 333 | 0.0 | 0.0 | 0.00 | 0.15 | 0.14 | 1 | 1008.9 |
| 20260506094539 | 42 | 333 | 0.0 | 0.0 | 0.00 | 0.15 | 0.14 | 1 | 1008.8 |
| 20260506094037 | 42 | 333 | 0.0 | 0.0 | 0.00 | 0.15 | 0.14 | 1 | 1008.7 |
| 20260506093537 | 42 | 333 | 0.0 | 0.0 | 0.00 | 0.15 | 0.14 | 1 | 1008.7 |
| 20260506093035 | 41 | 333 | 0.0 | 0.0 | 0.00 | 0.15 | 0.14 | 1 | 1008.7 |
| 20260506092533 | 41 | 35 | 0.0 | 0.0 | 0.00 | 0.15 | 0.14 | 1 | 1008.4 |
| 20260506092033 | 41 | 35 | 0.0 | 2.0 | 0.00 | 0.15 | 0.14 | 1 | 1008.3 |
| 20260506091530 | 41 | 35 | 0.0 | 2.0 | 0.00 | 0.15 | 0.14 | 1 | 1008.1 |
| 20260506091030 | 41 | 35 | 0.0 | 2.0 | 0.00 | 0.15 | 0.14 | 1 | 1008.0 |
| 20260506090527 | 41 | 35 | 0.0 | 4.0 | 0.00 | 0.15 | 0.14 | 1 | 1008.0 |
| 20260506090026 | 41 | 35 | 1.0 | 4.0 | 0.00 | 0.15 | 0.14 | 1 | 1008.1 |
| 20260506085525 | 41 | 35 | 2.0 | 4.0 | 0.00 | 0.16 | 0.14 | 1 | 1008.0 |
| 20260506085023 | 42 | 35 | 0.0 | 4.0 | 0.00 | 0.16 | 0.14 | 1 | 1007.9 |
| 20260506084533 | 43 | 5 | 1.0 | 3.0 | 0.00 | 0.16 | 0.14 | 1 | 1007.8 |
| 20260506084021 | 43 | 345 | 1.0 | 3.0 | 0.00 | 0.16 | 0.14 | 1 | 1007.7 |
| 20260506083521 | 42 | 345 | 0.0 | 3.0 | 0.00 | 0.16 | 0.14 | 1 | 1007.7 |
| 20260506083022 | 42 | 345 | 0.0 | 4.0 | 0.00 | 0.16 | 0.14 | 1 | 1007.8 |
| 20260506082515 | 43 | 345 | 1.0 | 3.0 | 0.00 | 0.16 | 0.14 | 1 | 1007.8 |
| 20260506082015 | 43 | 234 | 1.0 | 4.0 | 0.00 | 0.16 | 0.14 | 1 | 1007.5 |
| 20260506081513 | 42 | 172 | 1.0 | 3.0 | 0.00 | 0.16 | 0.14 | 1 | 1007.7 |
| 20260506081012 | 42 | 172 | 0.0 | 2.0 | 0.02 | 0.16 | 0.14 | 1 | 1007.7 |
| 20260506080510 | 43 | 172 | 0.0 | 2.0 | 0.05 | 0.16 | 0.14 | 1 | 1007.6 |
| 20260506073040 | 44 | 172 | 0.0 | 7.0 | 0.12 | 0.16 | 0.14 | 1 | 1007.5 |
| 20260506072539 | 45 | 192 | 4.0 | 10.0 | 0.13 | 0.16 | 0.14 | 1 | 1007.2 |
| 20260506072041 | 45 | 180 | 6.0 | 10.0 | 0.14 | 0.16 | 0.14 | 1 | 1007.1 |
| 20260506071538 | 45 | 163 | 7.0 | 9.0 | 0.13 | 0.15 | 0.13 | 1 | 1007.2 |
| 20260506071035 | 46 | 209 | 1.0 | 9.0 | 0.12 | 0.14 | 0.12 | 1 | 1007.9 |
| 20260506070532 | 46 | 259 | 6.0 | 10.0 | 0.09 | 0.11 | 0.09 | 1 | 1008.3 |
| 20260506062020 | 48 | 323 | 8.0 | 16.0 | 0.00 | 0.02 | 0.00 | 1 | 1007.5 |
| 20260506061518 | 49 | 345 | 11.0 | 17.0 | 0.00 | 0.02 | 0.00 | 1 | 1007.3 |
| 20260506061019 | 50 | 332 | 11.0 | 18.0 | 0.00 | 0.02 | 0.00 | 1 | 1007.1 |
| 20260506060514 | 50 | 345 | 11.0 | 18.0 | 0.00 | 0.02 | 0.00 | 1 | 1006.8 |
| 20260506051059 | 46 | 39 | 2.0 | 4.0 | 0.00 | 0.02 | 0.02 | 16 | 1004.9 |
| 20260506050557 | 46 | 39 | 0.0 | 4.0 | 0.00 | 0.02 | 0.02 | 15 | 1004.9 |
| 20260506050117 | 46 | 19 | 2.0 | 4.0 | 0.00 | 0.02 | 0.02 | 13 | 1005.1 |
| 20260506045053 | 46 | 335 | 2.0 | 5.0 | 0.00 | 0.02 | 0.02 | 17 | 1005.0 |
| 20260506044551 | 46 | 124 | 2.0 | 4.0 | 0.00 | 0.02 | 0.02 | 20 | 1004.7 |
| 20260506044049 | 47 | 277 | 0.0 | 4.0 | 0.00 | 0.02 | 0.02 | 18 | 1004.7 |
| 20260506043548 | 47 | 273 | 1.0 | 5.0 | 0.00 | 0.02 | 0.02 | 21 | 1004.8 |
| 20260506043049 | 47 | 223 | 0.0 | 5.0 | 0.00 | 0.02 | 0.02 | 23 | 1004.7 |
| 20260506042546 | 47 | 223 | 1.0 | 6.0 | 0.00 | 0.02 | 0.02 | 25 | 1004.7 |
| 20260506042046 | 48 | 180 | 3.0 | 6.0 | 0.00 | 0.02 | 0.02 | 24 | 1004.6 |
| 20260506041557 | 48 | 170 | 3.0 | 9.0 | 0.00 | 0.02 | 0.02 | 26 | 1004.6 |
| 20260506041041 | 48 | 171 | 5.0 | 9.0 | 0.00 | 0.02 | 0.02 | 28 | 1004.5 |
| 20260506040539 | 48 | 150 | 4.0 | 10.0 | 0.00 | 0.02 | 0.02 | 27 | 1004.3 |
| 20260506040039 | 47 | 164 | 7.0 | 10.0 | 0.00 | 0.02 | 0.02 | 24 | 1004.2 |
| 20260506035540 | 46 | 145 | 6.0 | 10.0 | 0.00 | 0.02 | 0.02 | 20 | 1004.1 |
| 20260506035035 | 46 | 166 | 4.0 | 9.0 | 0.00 | 0.02 | 0.02 | 25 | 1004.1 |
| 20260506034547 | 45 | 121 | 4.0 | 8.0 | 0.00 | 0.02 | 0.02 | 32 | 1003.9 |
| 20260506034032 | 46 | 128 | 3.0 | 8.0 | 0.00 | 0.02 | 0.02 | 36 | 1003.9 |
| 20260506033530 | 47 | 176 | 2.0 | 4.0 | 0.00 | 0.02 | 0.02 | 38 | 1003.9 |
| 20260506033028 | 47 | 176 | 2.0 | 5.0 | 0.00 | 0.02 | 0.02 | 37 | 1003.9 |
| 20260506032527 | 48 | 176 | 3.0 | 5.0 | 0.00 | 0.02 | 0.02 | 38 | 1003.8 |
| 20260506032027 | 48 | 176 | 3.0 | 5.0 | 0.00 | 0.02 | 0.02 | 37 | 1003.8 |
| 20260506031525 | 48 | 176 | 1.0 | 4.0 | 0.00 | 0.02 | 0.02 | 40 | 1003.8 |
| 20260506031024 | 49 | 176 | 0.0 | 4.0 | 0.00 | 0.02 | 0.02 | 42 | 1003.7 |
| 20260506030521 | 50 | 176 | 1.0 | 7.0 | 0.00 | 0.02 | 0.02 | 43 | 1003.7 |
| 20260506030020 | 50 | 176 | 3.0 | 8.0 | 0.00 | 0.02 | 0.02 | 42 | 1003.6 |
| 20260506025521 | 50 | 177 | 5.0 | 8.0 | 0.00 | 0.02 | 0.02 | 41 | 1003.5 |
| 20260506025017 | 49 | 182 | 5.0 | 8.0 | 0.00 | 0.02 | 0.02 | 41 | 1003.4 |
| 20260506024515 | 49 | 200 | 1.0 | 6.0 | 0.00 | 0.02 | 0.02 | 45 | 1003.3 |
| 20260506024014 | 50 | 244 | 3.0 | 7.0 | 0.00 | 0.02 | 0.02 | 46 | 1003.1 |
| 20260506023516 | 50 | 251 | 2.0 | 6.0 | 0.00 | 0.02 | 0.02 | 49 | 1003.0 |
| 20260506023012 | 52 | 244 | 3.0 | 7.0 | 0.00 | 0.02 | 0.02 | 50 | 1002.9 |
| 20260506022509 | 52 | 154 | 5.0 | 7.0 | 0.00 | 0.02 | 0.02 | 51 | 1002.7 |
| 20260506022008 | 53 | 155 | 4.0 | 9.0 | 0.00 | 0.02 | 0.02 | 51 | 1002.7 |